(395449) = 2011 SL259

Discovered at Mount Lemmon on 2005-03-08 by Mt. Lemmon Survey.

Orbit

Orbit type: Main Belt

Note: WebGL enabled browser required.

epoch2023-02-25.0
epoch JD2460000.5
perihelion date2020-04-03.94432
perihelion JD2458943.44432
argument of perihelion (°)299.16944
ascending node (°)19.73702
inclination (°)5.97757
eccentricity0.0586111
perihelion distance (AU)2.5742075
Tisserand w.r.t. Jupiter3.3
ΔV w.r.t. Earth (km/sec)10.2
semimajor axis (AU)2.7344783
mean anomaly (°)230.40399
mean daily motion (°/day)0.21796770
aphelion distance (AU)2.895
period (years)4.52
P-vector [x]0.75203420
P-vector [y]-0.56278110
P-vector [z]-0.34310638
Q-vector [x]0.65818520
Q-vector [y]0.66897044
Q-vector [z]0.34535604
absolute magnitude17.15
phase slope0.15
uncertainty0
referenceMPO 745323
observations used163
oppositions10
arc length (days)6641
first opposition used2005
last opposition used2023
residual rms (arc-secs)0.85
perturbers coarse indicatorM-v
perturbers precise indicator003Ek
first observation date used2005-03-08.0
last observation date used2023-05-14.0
computer nameMPCLINUX
Minimum Orbit Intersection Distances (in AU)
for orbit epoch: 2460000.5, reference: E2023-JF5
Mercury2.14011
Venus1.84677
Earth1.56686
Mars1.17286
Jupiter2.27985
Saturn6.23944
Uranus15.5672
Neptune27.1679

Observations

160 total observations over interval: 2005 03 08.43069 – 2023 05 14.295635
These data are available for download (format description).

